Tracking 34142 objects as of 18-May-2026
HD Live streaming from Space Station
objects crossing your sky now

KUIPER-00410

Track KUIPER-00410 now!
10-day predictions
KUIPER-00410 is classified as:


NORAD ID: 68926
Int'l Code: 2026-098H
Perigee: 468.1 km
Apogee: 486.3 km
Inclination: 51.9 °
Period: 94.0 minutes
Semi major axis: 6848 km
RCS: Unknown
Launch date: April 30, 2026
Source: United States (US)
Launch site: AIR FORCE EASTERN TEST RANGE (AFETR)
Your satellite tracking list
Your tracking list is empty




NASA's NSSDC Master Catalog

Two Line Element Set (TLE):
1 68926U 26098H   26137.83335647 -.00034341  00000-0 -10872-2 0  9991
2 68926  51.8734 214.1839 0013293  39.7697 264.1559 15.31940519  3304
Source of the keplerian elements: AFSPC